Home > Weather > Jamestown > Past weeks

Flag for Saint Helena Past Weather in Jamestown, Saint Helena — Yesterday and Last 2 Weeks

Now
63 °F

Mild.


Feels Like: 63 °F
Forecast: 71 / 73 °F
Wind: 15 mph from Southeast

Location: Saint Helena Island

Current Time: Jun 25, 2016 at 5:21:42 AM

Latest Report: Jun 25, 2016 at 4:00 AM


Visibility: N/A

Pressure: 30.12 "Hg

Humidity: 87%

Dew Point: 59 °F

Location of JamestownLocation

Past Weather in Jamestown — Graph

°F

Jamestown Temperature Yesterday

Maximum temperature yesterday: 68 °F (at 1:00 PM)
Minimum temperature yesterday: 63 °F (at 10:00 PM)
Average temperature yesterday: 65 °F

High & Low Weather Summary for the Past Weeks

 TemperatureHumidityPressure
High72 °F (Jun 19, 2:00 PM)100% (Jun 21, 9:00 AM)30.22 "Hg (Jun 21, 9:00 AM)
Low58 °F (Jun 22, 10:00 PM)49% (Jun 13, 2:00 PM)30.06 "Hg (Jun 17, 4:00 PM)
Average65 °F81%30.15 "Hg
* Reported Jun 10 4:00 AM — Jun 25 4:00 AM, Jamestown, Weather by CustomWeather, © 2016

Note: Actual official high and low records may vary slightly from our data, if they occured in-between our weather recording intervals... More about our weather records

Advertising

Jamestown Weather History for the Previous 24 Hours

Scroll right to see more
 ConditionsComfort  
Time TempWeatherWind HumidityBarometerVisibility
4:00 AM
Sat, Jun 25
63 °FMild.15 mph87%30.12 "HgN/A
3:00 AM63 °FMild.16 mph92%30.13 "HgN/A
2:00 AM63 °FMild.16 mph88%30.14 "HgN/A
1:00 AM63 °FMild.17 mph86%30.14 "HgN/A
11:00 PM
Fri, Jun 24
64 °FMild.17 mph87%30.16 "HgN/A
10:00 PM63 °FMild.15 mph89%30.16 "HgN/A
9:00 PM64 °FMild.17 mph89%30.15 "HgN/A
8:00 PM64 °FMild.18 mph89%30.15 "HgN/A
7:00 PM64 °FMild.17 mph87%30.14 "HgN/A
4:00 PM67 °FMild.17 mph77%30.10 "HgN/A
3:00 PM67 °FPartly sunny.17 mph78%30.10 "Hg9 mi
2:00 PM68 °FScattered clouds.20 mph78%30.11 "Hg12 mi
1:00 PM68 °FPartly sunny.20 mph75%30.13 "Hg12 mi
12:00 PM66 °FOvercast.20 mph82%30.15 "Hg12 mi
11:00 AM66 °FOvercast.20 mph82%30.17 "Hg12 mi
10:00 AM66 °FPartly sunny.17 mph75%30.18 "Hg16 mi
9:00 AM65 °FOvercast.16 mph81%30.18 "Hg9 mi
8:00 AM64 °FMild.15 mph90%30.17 "HgN/A
7:00 AM64 °FMild.14 mph91%30.16 "HgN/A
5:00 AM65 °FMild.15 mph73%30.14 "HgN/A
Weather by CustomWeather, © 2016

See weather overviewHow to use our weather pages